Simultaneous Nadir Overpasses (SNOs) Predictions

Prediction of SNOs between FY3D and NOAA-19 Satellite Orbit:

Table of predicted SNOs for the next 14.0 days since TLE Epoch: 8/10/2024
Index Date (FY3D) Time (FY3D) Lat,Lon (FY3D) SZA (FY3D ) Date (NOAA-19) Time (NOAA-19) Lat,Lon (NOAA-19) SZA (NOAA-19 ) Distance(km) Time Diff (sec)
1 08/19/2024 16:40:47 75.95, -69.56 63.43 08/19/2024 16:39:33 75.95, -70.01 63.43 12.04 74
2 08/19/2024 17:31:33 -76.04, 97.46 116.48 08/19/2024 17:30:30 -76.02, 97.51 116.49 2.13 63
3 08/19/2024 18:22:19 76.02, -95.17 63.52 08/19/2024 18:21:29 76.03, -95.22 63.53 1.68 50
4 08/19/2024 19:13:04 -76.06, 72.01 116.44 08/19/2024 19:12:27 -76.06, 72.14 116.44 3.52 37
5 08/19/2024 20:03:49 76.04,-120.62 63.56 08/19/2024 20:03:25 76.06,-120.59 63.58 2.33 24
6 08/19/2024 20:54:33 -76.03, 46.72 116.44 08/19/2024 20:54:24 -76.04, 46.61 116.43 3.24 9
7 08/19/2024 21:45:20 76.06,-146.07 63.61 08/19/2024 21:45:23 76.05,-146.13 63.59 2.21 3
8 08/19/2024 22:36:04 -76.05, 21.27 116.39 08/19/2024 22:36:21 -76.08, 21.24 116.37 2.71 17
9 08/19/2024 23:26:51 76.08,-171.52 63.65 08/19/2024 23:27:20 76.08,-171.50 63.65 0.47 29
10 08/20/2024 00:17:35 -76.07, -4.18 116.35 08/20/2024 00:18:19 -76.07, -4.29 116.36 3.31 44
11 08/20/2024 01:08:22 76.10, 163.03 63.69 08/20/2024 01:09:17 76.11, 163.13 63.70 2.68 55
12 08/20/2024 01:59:06 -76.10, -29.63 116.31 08/20/2024 02:00:16 -76.10, -29.66 116.30 1.09 70
13 08/20/2024 02:50:00 76.44, 136.43 64.06 08/20/2024 02:51:08 76.41, 138.76 64.03 61.05 68



Historial Predications of SNOs between FY3D and NOAA-19
